[Date Prev][Date Next][Thread Prev][Thread Next] - [Date Index][Thread Index][Author Index]

MIR & ISS Keps 7-23



MIR
1 16609U 86017A   99204.36926255  .00026649  00000-0  19179-3 0  6978
2 16609  51.6610 158.5592 0005433 338.9577  21.1247 15.73380130767104
ISS (ZARYA)
1 25544U 98067A   99204.14844971  .00034017  00000-0  41096-3 0  7819
2 25544  51.5964  16.9363 0010342 129.6188 230.6093 15.60336906 38211



----
Via the sarex mailing list at AMSAT.ORG courtesy of AMSAT-NA.
To unsubscribe, send "unsubscribe sarex" to Majordomo@amsat.org



AMSAT Top AMSAT Home